TimeEST,TemperatureF,Dew PointF,Humidity,Sea Level PressureIn,VisibilityMPH,Wind Direction,Wind SpeedMPH,Gust SpeedMPH,PrecipitationIn,Events,Conditions,WindDirDegrees,DateUTC
12:53 AM,28.9,21.0,72,30.29,10.0,West,6.9,-,N/A,,Overcast,270,2013-01-04 05:53:00
1:53 AM,28.9,21.0,72,30.29,9.0,West,9.2,-,N/A,,Overcast,260,2013-01-04 06:53:00
2:53 AM,28.9,21.0,72,30.30,10.0,WSW,9.2,-,N/A,,Overcast,250,2013-01-04 07:53:00
3:53 AM,28.9,21.0,72,30.30,10.0,WSW,6.9,-,N/A,,Overcast,250,2013-01-04 08:53:00
4:45 AM,28.4,21.2,74,30.26,9.0,WSW,8.1,-,N/A,,Overcast,250,2013-01-04 09:45:00
4:53 AM,28.9,21.9,75,30.29,9.0,WSW,8.1,-,N/A,,Overcast,250,2013-01-04 09:53:00
5:22 AM,28.4,21.2,74,30.25,9.0,WSW,8.1,-,N/A,,Overcast,250,2013-01-04 10:22:00
5:53 AM,28.9,21.9,75,30.28,8.0,WSW,9.2,-,N/A,,Overcast,250,2013-01-04 10:53:00
7:35 AM,26.6,19.4,74,30.27,10.0,West,11.5,-,N/A,,Scattered Clouds,270,2013-01-04 12:35:00
8:53 AM,27.0,17.1,66,30.32,10.0,West,11.5,20.7,N/A,,Clear,270,2013-01-04 13:53:00
9:53 AM,28.0,18.0,66,30.34,10.0,West,9.2,-,N/A,,Partly Cloudy,270,2013-01-04 14:53:00
10:17 AM,28.4,17.6,64,30.32,10.0,West,8.1,-,N/A,,Mostly Cloudy,260,2013-01-04 15:17:00
10:53 AM,28.9,19.0,67,30.35,10.0,West,8.1,-,N/A,,Overcast,270,2013-01-04 15:53:00
11:53 AM,30.0,19.9,66,30.33,10.0,West,10.4,-,N/A,,Scattered Clouds,260,2013-01-04 16:53:00
12:53 PM,32.0,19.9,61,30.29,10.0,WSW,16.1,23.0,N/A,,Clear,250,2013-01-04 17:53:00
1:53 PM,32.0,21.0,64,30.28,10.0,West,17.3,21.9,N/A,,Clear,260,2013-01-04 18:53:00
2:53 PM,33.1,21.9,64,30.28,10.0,WSW,11.5,-,N/A,,Clear,250,2013-01-04 19:53:00
3:53 PM,32.0,21.9,66,30.28,10.0,West,10.4,-,N/A,,Clear,260,2013-01-04 20:53:00
4:53 PM,30.9,21.0,67,30.30,10.0,West,8.1,18.4,N/A,,Clear,270,2013-01-04 21:53:00
5:53 PM,30.0,18.0,61,30.31,10.0,West,9.2,-,N/A,,Clear,270,2013-01-04 22:53:00
6:53 PM,28.0,17.1,63,30.31,10.0,WSW,9.2,-,N/A,,Clear,250,2013-01-04 23:53:00
7:53 PM,28.0,17.1,63,30.32,10.0,WSW,9.2,-,N/A,,Clear,250,2013-01-05 00:53:00
8:53 PM,28.0,17.1,63,30.32,10.0,WSW,8.1,-,N/A,,Clear,240,2013-01-05 01:53:00
9:53 PM,28.0,17.1,63,30.33,10.0,Variable,6.9,-,N/A,,Clear,0,2013-01-05 02:53:00
10:53 PM,28.0,18.0,66,30.33,10.0,WSW,8.1,-,N/A,,Clear,240,2013-01-05 03:53:00
11:53 PM,27.0,18.0,69,30.34,10.0,WSW,8.1,-,N/A,,Clear,250,2013-01-05 04:53:00